Date,Time,Air Temperature,Dewpoint,Windchill,Heat Index,RH,3m Max Wind Speed,3m Mean Wind Speed,3m Wind Direction,Rain,Solar Radiation
,,F,F,F,F,%,MPH,MPH,deg,in,MJ/m^2
2024-04-26,15:55,78.2,15.5,78.2,78.2,9.3,16.7,8.8,256.8,0.0,0.2557052
2024-04-26,16:00,77.3,15.1,77.3,77.3,9.4,14.6,8.9,236,0.0,0.2513621
2024-04-26,16:05,77.5,16.8,77.5,77.5,10.1,14.8,9.3,243.9,0.0,0.2466194
2024-04-26,16:10,78.7,18.2,78.7,78.7,10.3,11.7,5.9,254.2,0.0,0.241539
2024-04-26,16:15,78.3,15.3,78.3,78.3,9.2,16.7,9,246.1,0.0,0.2365804
2024-04-26,16:20,78.1,13.1,78.1,78.1,8.4,18.9,10.8,238.7,0.0,0.2311672
2024-04-26,16:25,78,15.6,78.0,78,9.4,14.2,7.5,225.4,0.0,0.2260182
2024-04-26,16:30,78.6,14.2,78.6,78.6,8.7,14.2,7,248.5,0.0,0.2226191
2024-04-26,16:35,78,14.5,78.0,78,9.0,16,8.6,269.5,0.0,0.2162843
2024-04-26,16:40,77.9,15.1,77.9,77.9,9.2,12.1,7.9,271,0.0,0.2102706
2024-04-26,16:45,78.3,15.3,78.3,78.3,9.2,11.9,6.7,261.3,0.0,0.2049254
2024-04-26,16:50,78.7,14.9,78.7,78.7,8.9,12.5,6.2,265.5,0.0,0.1993493
2024-04-26,16:55,78.5,14.4,78.5,78.5,8.8,13.8,8.2,254.1,0.0,0.1928521
2024-04-26,17:00,78.7,15,78.7,78.7,9.0,13.9,8.2,259.6,0.0,0.1875377
2024-04-26,17:05,78.7,12.7,78.7,78.7,8.1,13.6,7.6,255.9,0.0,0.1819302
2024-04-26,17:10,79,14.7,79.0,79,8.8,11.4,6.8,247.4,0.0,0.1765933
2024-04-26,17:15,78.7,13.5,78.7,78.7,8.4,15.3,7.6,277.8,0.0,0.1705489
2024-04-26,17:20,78.5,11.8,78.5,78.5,7.8,17.6,9,263,0.0,0.1638013
2024-04-26,17:25,78.6,13.1,78.6,78.6,8.3,12.2,6.7,229.9,0.0,0.1571693
2024-04-26,17:30,78.9,15,78.9,78.9,8.9,8.9,5.9,240,0.0,0.1511769
2024-04-26,17:35,78.7,12.9,78.7,78.7,8.2,11.9,4.9,257.6,0.0,0.1464521
2024-04-26,17:40,78.7,12.5,78.7,78.7,8.0,14.8,6.9,275.6,0.0,0.1401921
2024-04-26,17:45,79.3,10.6,79.3,79.3,7.2,10.8,4.7,245.1,0.0,0.1346079
2024-04-26,17:50,79.3,13.7,79.3,79.3,8.3,9.1,6.1,254.9,0.0,0.12777
2024-04-26,17:55,78.8,10.6,78.8,78.8,7.4,13.1,7.7,222.1,0.0,0.1216272
2024-04-26,18:00,78.6,10.7,78.6,78.6,7.4,12.5,6.8,255.8,0.0,0.1168047
2024-04-26,18:05,78.9,13.1,78.9,78.9,8.2,11.6,5.9,273.5,0.0,0.1099003
2024-04-26,18:10,78.5,12.7,78.5,78.5,8.2,13.6,8.8,266,0.0,0.1030734
2024-04-26,18:15,78.2,12.5,78.2,78.2,8.2,13.6,7.6,284.3,0.0,0.0976935
2024-04-26,18:20,78,11.7,78.0,78,7.9,11.7,6.9,258.6,0.0,0.08945511
2024-04-26,18:25,78.2,13,78.2,78.2,8.4,9.1,6,241.2,0.0,0.08248863
2024-04-26,18:30,78.1,14.8,78.1,78.1,9.1,15.5,7,256.5,0.0,0.07748231
2024-04-26,18:35,77.8,14,77.8,77.8,8.8,16.7,7.3,256.6,0.0,0.07279483
2024-04-26,18:40,77.9,15.7,77.9,77.9,9.5,9.8,4.9,249.1,0.0,0.0683456
2024-04-26,18:45,77.3,15.3,77.3,77.3,9.5,14.1,7.8,271.7,0.0,0.06247064
2024-04-26,18:50,77.3,16.9,77.3,77.3,10.2,9.8,5.7,272.5,0.0,0.05700745
2024-04-26,18:55,77,14.6,77.0,77,9.3,11.8,6,266.7,0.0,0.05118385
2024-04-26,19:00,76.8,15.2,76.8,76.8,9.6,12.3,7.1,275.3,0.0,0.04606021
2024-04-26,19:05,76.7,13.7,76.7,76.7,9.1,10.3,5.7,265.4,0.0,0.04085244
2024-04-26,19:10,76.5,14.1,76.5,76.5,9.3,13.5,7.2,270.2,0.0,0.03547336
2024-04-26,19:15,76.2,14.8,76.2,76.2,9.7,9.5,6,273.7,0.0,0.03048801
2024-04-26,19:20,75.9,13.6,75.9,75.9,9.2,12,5.1,265.2,0.0,0.02457479
2024-04-26,19:25,75.8,13.8,75.8,75.8,9.4,12,7,257.5,0.0,0.01859714
2024-04-26,19:30,75.5,14.3,75.5,75.5,9.7,9.1,6.3,261,0.0,0.01178753
2024-04-26,19:35,75.4,14.9,75.4,75.4,10.0,11.9,7.1,262,0.0,0.00449458
2024-04-26,19:40,75.1,15.1,75.1,75.1,10.1,12.2,6.7,259.9,0.0,0.00286764
2024-04-26,19:45,75,15.5,75.0,75,10.4,11.1,6.8,268,0.0,0.00143159
2024-04-26,19:50,74.6,15.9,74.6,74.6,10.7,8.1,4.9,266.3,0.0,0.0005100599
2024-04-26,19:55,74.2,16.8,74.2,74.2,11.2,8.6,3.7,264.9,0.0,-0.00006691999
2024-04-26,20:00,73.8,16.1,73.8,73.8,11.0,9,3.9,265.4,0.0,-0.00030201
2024-04-26,20:05,73.8,15.7,73.8,73.8,10.8,9.6,5,254.3,0.0,-0.00030908
2024-04-26,20:10,73.9,16,73.9,73.9,10.9,9.7,5.5,262.5,0.0,-0.00035364
2024-04-26,20:15,73.8,16,73.8,73.8,11,11.1,5.5,260.3,0.0,-0.0004343
2024-04-26,20:20,74,16.1,74.0,74,11.0,12.2,6.5,254,0.0,-0.00034696
2024-04-26,20:25,73.7,16.2,73.7,73.7,11.2,9.5,4.9,248.5,0.0,-0.0005166
2024-04-26,20:30,73.1,16.2,73.1,73.1,11.4,6.7,4,237,0.0,-0.0005366299
2024-04-26,20:35,72.5,16.1,72.5,72.5,11.5,5.1,3,241.2,0.0,-0.00061092
2024-04-26,20:40,72.1,16.2,72.1,72.1,11.8,5.5,3.5,235,0.0,-0.00048463
2024-04-26,20:45,71.8,16.6,71.8,71.8,12.1,5.1,3.3,238.9,0.0,-0.00049166
2024-04-26,20:50,71.4,16.5,71.4,71.4,12.2,6,3.9,233.5,0.0,-0.00045273
2024-04-26,20:55,71.2,17.1,71.2,71.2,12.6,5.4,2.8,238.1,0.0,-0.00054119
2024-04-26,21:00,70.6,17.7,70.6,70.6,13.2,4.4,2.8,233.7,0.0,-0.00050552
2024-04-26,21:05,69.9,17.9,69.9,69.9,13.6,3.8,2.2,228,0.0,-0.0005864199
2024-04-26,21:10,69.8,17.7,69.8,69.8,13.6,5.6,2.9,230.1,0.0,-0.00041124
2024-04-26,21:15,69.3,18.1,69.3,69.3,14.0,4.1,2.3,227.2,0.0,-0.00049016
2024-04-26,21:20,68.8,17.9,68.8,68.8,14.2,3.8,1.9,223.5,0.0,-0.0005340099
2024-04-26,21:25,69,16.6,69.0,69,13.3,5,3.3,225.3,0.0,-0.0003048
2024-04-26,21:30,69.8,16.8,69.8,69.8,13.1,9.8,4.5,232.4,0.0,-0.00017823
2024-04-26,21:35,70.1,17.5,70.1,70.1,13.4,7,4.9,226.9,0.0,-0.00021649
2024-04-26,21:40,70.2,18,70.2,70.2,13.5,8.7,5.2,233.1,0.0,-0.00028812
2024-04-26,21:45,70.3,18.6,70.3,70.3,13.9,8.2,5.5,230,0.0,-0.00031323
2024-04-26,21:50,70.6,18.5,70.6,70.6,13.7,10.2,6.6,232.9,0.0,-0.00028062
2024-04-26,21:55,70.3,18.7,70.3,70.3,13.9,6.6,4.7,232.6,0.0,-0.00044625
2024-04-26,22:00,70.1,18.9,70.1,70.1,14.2,9.1,4.5,238.9,0.0,-0.00044412
2024-04-26,22:05,69.9,18.9,69.9,69.9,14.2,8,4.7,234.2,0.0,-0.00043106
2024-04-26,22:10,69.9,18.7,69.9,69.9,14.1,8.6,5.2,240.3,0.0,-0.00038283
2024-04-26,22:15,69.8,18.9,69.8,69.8,14.3,7.4,5.3,238.8,0.0,-0.00036285
2024-04-26,22:20,69.7,18.4,69.7,69.7,14.1,9.8,5,247.8,0.0,-0.00043041
2024-04-26,22:25,69.6,18.4,69.6,69.6,14.1,9.6,5.7,238.2,0.0,-0.00036462
2024-04-26,22:30,69.7,18.1,69.7,69.7,13.9,11.8,6,243.7,0.0,-0.00037122
2024-04-26,22:35,69.8,18.6,69.8,69.8,14.1,9.8,6.3,249.2,0.0,-0.00037611
2024-04-26,22:40,69.7,19,69.7,69.7,14.4,8.8,6,243.8,0.0,-0.00039333
2024-04-26,22:45,69.5,18,69.5,69.5,13.9,11.9,7,244.1,0.0,-0.00039086
2024-04-26,22:50,69.4,18.1,69.4,69.4,14.0,10.6,5.9,240.5,0.0,-0.00041401
2024-04-26,22:55,68.9,17.6,68.9,68.9,13.9,7.7,4.9,232.6,0.0,-0.00052017
2024-04-26,23:00,68.4,17.8,68.4,68.4,14.3,8.1,4.9,236.6,0.0,-0.00048883
2024-04-26,23:05,67.8,18.1,67.8,67.8,14.8,6.6,3.9,242.9,0.0,-0.0005365
2024-04-26,23:10,67.5,18.2,67.5,67.5,15.0,6.5,4.1,230.2,0.0,-0.00044004
2024-04-26,23:15,67.5,18.5,67.5,67.5,15.2,8.4,4.7,246.2,0.0,-0.00036418
2024-04-26,23:20,67.4,18.9,67.4,67.4,15.5,8.7,4.1,249,0.0,-0.00042519
2024-04-26,23:25,67.3,19.4,67.3,67.3,15.9,7.7,4.4,240.6,0.0,-0.00037822
2024-04-26,23:30,67,19.1,67.0,67,15.9,6.8,4.8,239.3,0.0,-0.00040218
2024-04-26,23:35,66.7,19.5,66.7,66.7,16.3,6.7,3.6,247.6,0.0,-0.0004933
2024-04-26,23:40,66.3,19.7,66.3,66.3,16.6,6.6,3.7,237.9,0.0,-0.0004316
2024-04-26,23:45,66.1,19.8,66.1,66.1,16.9,6.2,4.1,229.4,0.0,-0.00039362
2024-04-26,23:50,66.1,20.1,66.1,66.1,17.1,7.2,4.6,234.8,0.0,-0.00034241
2024-04-26,23:55,66.1,20.1,66.1,66.1,17.1,7.2,4.6,240.8,0.0,-0.00037231
2024-04-27,00:00,65.9,20.6,65.9,65.9,17.6,8,4.3,251.6,0.0,-0.00038036
2024-04-27,00:05,65.8,20.2,65.8,65.8,17.4,6.4,4,250.3,0.0,-0.00040276
2024-04-27,00:10,65.9,20.6,65.9,65.9,17.5,8.8,4.9,247.1,0.0,-0.00028613
2024-04-27,00:15,65.7,20.9,65.7,65.7,17.9,7.4,4.3,247,0.0,-0.00041831
2024-04-27,00:20,65.8,21.1,65.8,65.8,18.0,8,5,243.5,0.0,-0.00032
2024-04-27,00:25,65.5,21.3,65.5,65.5,18.3,8.3,4.6,244.2,0.0,-0.00037826
2024-04-27,00:30,65.4,21.3,65.4,65.4,18.4,9.3,4.6,242.1,0.0,-0.00039921
2024-04-27,00:35,65.1,21.4,65.1,65.1,18.7,7.7,4.9,249.1,0.0,-0.0004116
2024-04-27,00:40,65.3,21.6,65.3,65.3,18.7,8.4,5.6,244.9,0.0,-0.00029689
2024-04-27,00:45,65.2,21.8,65.2,65.2,18.9,8.7,5.4,243.5,0.0,-0.00035831
2024-04-27,00:50,65.1,22.2,65.1,65.1,19.3,7.8,5.1,245.6,0.0,-0.00038129
2024-04-27,00:55,64.8,22.5,64.8,64.8,19.8,6.6,4,248.8,0.0,-0.00044839
2024-04-27,01:00,64.6,22.2,64.6,64.6,19.6,8,4.2,256.1,0.0,-0.00041165
2024-04-27,01:05,64.4,22.9,64.4,64.4,20.4,6,3.5,235.5,0.0,-0.00042188
2024-04-27,01:10,63.8,22.5,63.8,63.8,20.5,4.8,3.4,230.4,0.0,-0.00046768
2024-04-27,01:15,63.4,22.4,63.4,63.4,20.7,5.5,3.3,239.5,0.0,-0.00047873
2024-04-27,01:20,63,22.9,63.0,63,21.4,4.8,2.6,241.3,0.0,-0.0004963599
2024-04-27,01:25,62.5,22.5,62.5,62.5,21.5,4,2.6,247.7,0.0,-0.00045906
2024-04-27,01:30,62.1,23,62.1,62.1,22.3,3.6,2.4,241.7,0.0,-0.00046164
2024-04-27,01:35,61.5,23,61.5,61.5,22.7,3,1.9,242.9,0.0,-0.0005116399
2024-04-27,01:40,61.2,22.8,61.2,61.2,22.8,3.6,2.6,243.1,0.0,-0.00036743
2024-04-27,01:45,61,23.4,61.0,61,23.5,3.4,1.9,250.6,0.0,-0.00041189
2024-04-27,01:50,60.6,23.6,60.6,60.6,24.0,2.9,1.7,280.6,0.0,-0.00045773
2024-04-27,01:55,60.1,23.3,60.1,60.1,24.2,2.4,1.6,271.7,0.0,-0.00047808
2024-04-27,02:00,59.9,23.3,59.9,59.9,24.4,3,1.9,251,0.0,-0.00038856
2024-04-27,02:05,59.8,24.1,59.8,59.8,25.2,2.9,1.7,240,0.0,-0.00036345
2024-04-27,02:10,59.5,23.6,59.5,59.5,24.9,2.4,1.5,257.4,0.0,-0.00039898
2024-04-27,02:15,59.2,23.9,59.2,59.2,25.5,2.6,1.7,245.8,0.0,-0.00033898
2024-04-27,02:20,59.1,24,59.1,59.1,25.8,2.6,1.9,244.3,0.0,-0.00034064
2024-04-27,02:25,59,23.9,59.0,59,25.8,2.6,1.7,252.6,0.0,-0.00036451
2024-04-27,02:30,58.9,24.4,58.9,58.9,26.4,4,2.3,247.8,0.0,-0.00026536
2024-04-27,02:35,58.6,24.3,58.6,58.6,26.5,2.9,2.2,243.7,0.0,-0.00033286
2024-04-27,02:40,58.3,23.9,58.3,58.3,26.4,4,2.4,238.2,0.0,-0.00030513
2024-04-27,02:45,58.5,24.3,58.5,58.5,26.6,3.8,2.1,239.9,0.0,-0.00031258
2024-04-27,02:50,58.2,25,58.2,58.2,27.6,2.9,1.9,239,0.0,-0.00036611
2024-04-27,02:55,58.4,25.3,58.4,58.4,28.0,2.8,1.7,264,0.0,-0.00035184
2024-04-27,03:00,58.5,24.7,58.5,58.5,27.1,3.2,1.9,241.6,0.0,-0.00030434
2024-04-27,03:05,58.1,25.5,58.1,58.1,28.5,2.7,1.6,235.3,0.0,-0.00038982
2024-04-27,03:10,57,25.5,57.0,57,29.6,1.5,0.7,199.6,0.0,-0.00057203
2024-04-27,03:15,55.9,26.5,55.9,55.9,32.1,1.5,0.4,185.5,0.0,-0.0005947099
2024-04-27,03:20,55,26.5,55.0,55,33.2,0.7,0.1,189.1,0.0,-0.0006018099
2024-04-27,03:25,54.4,26.1,54.4,54.4,33.2,1.1,0.5,168.2,0.0,-0.00046854
2024-04-27,03:30,54,26.6,54.0,54,34.5,0.5,0.1,155,0.0,-0.00049399
2024-04-27,03:35,53.7,26.6,53.7,53.7,35.0,0,0,0,0.0,-0.0004458
2024-04-27,03:40,53.7,26.5,53.7,53.7,34.8,1.4,0.3,195.8,0.0,-0.00026501
2024-04-27,03:45,53.3,26.9,53.3,53.3,35.9,0.7,0.1,233.4,0.0,-0.00045098
2024-04-27,03:50,51.8,27.6,51.8,51.8,38.9,1.6,0.7,349.8,0.0,-0.00051327
2024-04-27,03:55,50.9,27.1,50.9,50.9,39.4,0.9,0.1,333.4,0.0,-0.0005495999
2024-04-27,04:00,50.1,27.6,50.1,50.1,41.5,0,0,0,0.0,-0.00052736
2024-04-27,04:05,49.7,27.8,49.7,49.7,42.5,0,0,0,0.0,-0.00044028
2024-04-27,04:10,49.4,28.1,49.4,49.4,43.6,1.4,0.2,35.5,0.0,-0.00038059
2024-04-27,04:15,49.1,28,49.1,49.1,43.8,2,0.8,352.2,0.0,-0.00036556
2024-04-27,04:20,48.8,28.5,48.8,48.8,45.2,1.1,0.1,280,0.0,-0.00041091
2024-04-27,04:25,48.5,28.2,48.5,48.5,45.1,1.1,0.2,348.2,0.0,-0.00036435
2024-04-27,04:30,48.4,27.7,48.4,48.4,44.4,0.7,0,6.7,0.0,-0.00036842
2024-04-27,04:35,48.3,27.6,48.3,48.3,44.6,1.7,0.5,337.6,0.0,-0.00032671
2024-04-27,04:40,48.3,28,48.3,48.3,45.2,1.6,0.2,325.7,0.0,-0.00034795
2024-04-27,04:45,48.1,27.2,48.1,48.1,44.0,0,0,0,0.0,-0.00036485
2024-04-27,04:50,48.9,27.8,48.9,48.9,43.8,1.5,0.7,172.6,0.0,-0.00020309
2024-04-27,04:55,49.1,30,49.1,49.1,47.6,1.6,1.1,176.6,0.0,-0.00024986
2024-04-27,05:00,48.1,30.1,48.1,48.1,49.5,1,0.2,186.4,0.0,-0.00047749
2024-04-27,05:05,47.5,27.2,47.5,47.5,45.0,0.9,0.3,186.3,0.0,-0.00039579
2024-04-27,05:10,47,27.8,47.0,47,46.9,0,0,0,0.0,-0.00042327
2024-04-27,05:15,46.3,26.7,46.3,46.3,46.0,0,0,0,0.0,-0.00048585
2024-04-27,05:20,46.4,29.9,46.4,46.4,52.4,0.6,0.1,55.3,0.0,-0.00037324
2024-04-27,05:25,46.1,29.5,46.1,46.1,52.2,0,0,0,0.0,-0.00041723
2024-04-27,05:30,45.5,29.2,45.5,45.5,52.7,0,0,0,0.0,-0.00044269
2024-04-27,05:35,44.8,29.5,44.8,44.8,54.6,0,0,0,0.0,-0.00039999
2024-04-27,05:40,44.2,29.2,44.2,44.2,55.4,0,0,0,0.0,-0.00035052
2024-04-27,05:45,43.8,29,43.8,43.8,55.6,0,0,0,0.0,-0.00032105
2024-04-27,05:50,43.6,29.4,43.6,43.6,57.1,0,0,0,0.0,-0.00035102
2024-04-27,05:55,43.8,28.9,43.8,43.8,55.4,0,0,0,0.0,-0.00031366
2024-04-27,06:00,43.9,29.9,43.9,43.9,57.6,0.9,0.5,340,0.0,-0.00024045
2024-04-27,06:05,43.5,29.5,43.5,43.5,57.5,1.4,1,334.2,0.0,-0.0002808
2024-04-27,06:10,43.2,29.9,43.2,43.2,59.2,0.8,0.3,333.5,0.0,-0.00027037
2024-04-27,06:15,43.3,30.5,43.3,43.3,60.3,0.7,0.2,299.7,0.0,-0.00001726
2024-04-27,06:20,43.3,30.2,43.3,43.3,59.6,0,0,0,0.0,0.00026711
2024-04-27,06:25,43.6,31.4,43.6,43.6,62.1,1.4,0.7,222.6,0.0,0.0008806899
2024-04-27,06:30,44.2,31.4,44.2,44.2,60.7,1.1,0.9,205.8,0.0,0.00183514
2024-04-27,06:35,44,31.3,44.0,44,60.7,0.2,0,206.5,0.0,0.00291447
2024-04-27,06:40,43.8,32,43.8,43.8,63.2,0,0,0,0.0,0.00444426
2024-04-27,06:45,43.4,31.1,43.4,43.4,61.6,0,0,0,0.0,0.00597716
2024-04-27,06:50,43.2,31.9,43.2,43.2,64.2,0,0,0,0.0,0.00815946
2024-04-27,06:55,43.1,31.1,43.1,43.1,62.4,0,0,0,0.0,0.009182279
2024-04-27,07:00,43.3,31.2,43.3,43.3,62.2,1.7,1.1,355.3,0.0,0.009026749
2024-04-27,07:05,43.9,32.5,43.9,43.9,64.0,1.5,1.2,1.3,0.0,0.01091859
2024-04-27,07:10,44.5,33.9,44.5,44.5,66.1,1.9,1.3,354.8,0.0,0.0129237
2024-04-27,07:15,45.1,33.5,45.1,45.1,63.6,1.5,0.7,6.7,0.0,0.01543937
2024-04-27,07:20,46,32.4,46.0,46,58.8,0.6,0.2,50.9,0.0,0.04849338
2024-04-27,07:25,47.7,32.7,47.7,47.7,55.9,1.8,1.1,46.6,0.0,0.05911662
2024-04-27,07:30,49.7,30.6,49.7,49.7,47.8,1.7,1.1,24.6,0.0,0.06453197
2024-04-27,07:35,50.8,28.2,50.8,50.8,41.5,1.7,1,354.5,0.0,0.07015356
2024-04-27,07:40,51.8,29,51.8,51.8,41.3,2.1,1.3,356.6,0.0,0.07582887
2024-04-27,07:45,53.1,29.5,53.1,53.1,40.2,2.9,1.6,19.8,0.0,0.08203404
2024-04-27,07:50,54,30.4,54.0,54,40.4,3.2,2.3,23.0,0.0,0.08755694
2024-04-27,07:55,55.1,30.7,55.1,55.1,39.3,4.9,2.3,349.9,0.0,0.09356573
2024-04-27,08:00,57.5,27.5,57.5,57.5,31.5,9.5,5.3,316,0.0,0.0996578
2024-04-27,08:05,58.4,27.4,58.4,58.4,30.4,9.5,6.3,315.1,0.0,0.1056519
2024-04-27,08:10,58.7,27.9,58.7,58.7,30.6,14.6,7.1,322.5,0.0,0.1115328
2024-04-27,08:15,59.1,28.2,59.1,59.1,30.7,11.5,7.2,324.1,0.0,0.1174276
2024-04-27,08:20,59.4,28,59.4,59.4,30.1,13,7.5,323,0.0,0.1236089
2024-04-27,08:25,59.5,27.7,59.5,59.5,29.7,15.8,9.6,327.5,0.0,0.1297586
2024-04-27,08:30,59.4,27.6,59.4,59.4,29.5,14.6,10.1,325.3,0.0,0.1360504
2024-04-27,08:35,60.1,27.1,60.1,60.1,28.3,13.8,7.3,325.1,0.0,0.1425737
2024-04-27,08:40,60.2,28.6,60.2,60.2,30,13.4,7.8,316.2,0.0,0.1482437
2024-04-27,08:45,60.6,27.8,60.6,60.6,28.5,10.9,7.5,314,0.0,0.1544614
2024-04-27,08:50,60.7,27.3,60.7,60.7,27.9,12.3,7.7,316.8,0.0,0.1609548
2024-04-27,08:55,60.9,28.5,60.9,60.9,29.1,14.4,7.5,314.9,0.0,0.1672319
2024-04-27,09:00,61.5,27.8,61.5,61.5,27.7,9.1,7.2,317.2,0.0,0.1730347
2024-04-27,09:05,61.3,28.1,61.3,61.3,28.3,14.3,9.6,324.1,0.0,0.178515
2024-04-27,09:10,61.6,27.3,61.6,61.6,27.0,13.9,6.9,315.6,0.0,0.1844563
2024-04-27,09:15,61.7,27.1,61.7,61.7,26.8,11.9,8,312.4,0.0,0.1900348
2024-04-27,09:20,62,26.6,62.0,62,25.9,10.8,7.4,304.8,0.0,0.1953491
2024-04-27,09:25,62.2,25.8,62.2,62.2,25.0,13.4,7.8,307.6,0.0,0.2012756
2024-04-27,09:30,62.5,26,62.5,62.5,24.9,12.6,6.8,283.8,0.0,0.2070586
2024-04-27,09:35,62.4,27.2,62.4,62.4,26.2,16.6,8.7,302.2,0.0,0.2132275
2024-04-27,09:40,62.3,26.3,62.3,62.3,25.3,14.6,7.8,291.4,0.0,0.2183824
2024-04-27,09:45,62.6,25.7,62.6,62.6,24.4,14.2,7.9,306.5,0.0,0.2242908
2024-04-27,09:50,63,25.8,63.0,63,24.2,11.8,7.7,302.9,0.0,0.229477
2024-04-27,09:55,63.4,26.2,63.4,63.4,24.2,13.7,7,296.5,0.0,0.2354216
2024-04-27,10:00,63.1,25.8,63.1,63.1,24.1,13.8,8.4,317.5,0.0,0.2401032
2024-04-27,10:05,63.6,24.7,63.6,63.6,22.6,16.6,8.3,304.7,0.0,0.2449922
2024-04-27,10:10,62.7,25,62.7,62.7,23.6,14.3,9.3,293.5,0.0,0.2510941
2024-04-27,10:15,63.2,24.3,63.2,63.2,22.6,15,8.7,303.1,0.0,0.255262
2024-04-27,10:20,63.1,24.9,63.1,63.1,23.2,16.3,10.5,316.2,0.0,0.2590797
2024-04-27,10:25,63.6,25.4,63.6,63.6,23.3,11.6,7.3,307,0.0,0.2643777
2024-04-27,10:30,63.8,23.9,63.8,63.8,21.7,15.6,8.6,302.3,0.0,0.2683044
2024-04-27,10:35,63.3,23.9,63.3,63.3,22.1,12,7.7,291.8,0.0,0.2733812
2024-04-27,10:40,64.6,23.4,64.6,64.6,20.6,10.6,5,294,0.0,0.2770432
2024-04-27,10:45,64.5,22.6,64.5,64.5,20.1,15.6,9.6,308.3,0.0,0.2806511
2024-04-27,10:50,64.1,24.8,64.1,64.1,22.3,10.3,5.7,289.9,0.0,0.2864386
2024-04-27,10:55,64.2,24.5,64.2,64.2,22.0,16.2,8.9,313.8,0.0,0.2903866
2024-04-27,11:00,65,23,65.0,65,20.1,12.7,8.1,304.9,0.0,0.2939117
2024-04-27,11:05,63.6,22.5,63.6,63.6,20.7,12.7,9.1,285.9,0.0,0.2962771
2024-04-27,11:10,64.4,22.4,64.4,64.4,20,15.5,8.4,283.7,0.0,0.3019178
2024-04-27,11:15,64.4,20.9,64.4,64.4,18.7,12.4,7.7,267.9,0.0,0.3080783
2024-04-27,11:20,64.6,17.6,64.6,64.6,16.1,13.4,9,286,0.0,0.3094456
2024-04-27,11:25,65.1,20.3,65.1,65.1,17.8,13,10.2,293.6,0.0,0.3110876
2024-04-27,11:30,65.1,21.6,65.1,65.1,18.8,14,8.3,298.9,0.0,0.3139009
2024-04-27,11:35,66.3,22.3,66.3,66.3,18.6,8.2,4.7,288.3,0.0,0.3173499
2024-04-27,11:40,66.2,22.1,66.2,66.2,18.5,13.1,7,306.6,0.0,0.3208765
2024-04-27,11:45,66,22.2,66.0,66,18.8,16.6,8.2,279.6,0.0,0.3221511
2024-04-27,11:50,66.2,21.9,66.2,66.2,18.4,14.2,8.3,294.5,0.0,0.3275127
2024-04-27,11:55,66.4,21.5,66.4,66.4,17.9,13.9,7.6,285.8,0.0,0.3301542
2024-04-27,12:00,66.5,20.3,66.5,66.5,17.0,12.2,7.3,308.4,0.0,0.320289
2024-04-27,12:05,66.8,20.4,66.8,66.8,16.9,11.8,7,287,0.0,0.3358452
2024-04-27,12:10,67.2,22.8,67.2,67.2,18.4,14.1,8.1,259.5,0.0,0.3375376
2024-04-27,12:15,67.2,22.1,67.2,67.2,17.9,12.8,4.8,276.1,0.0,0.3490082
2024-04-27,12:20,67.1,22.1,67.1,67.1,18.0,14.1,7.1,263.2,0.0,0.3577906
2024-04-27,12:25,68.3,22.5,68.3,68.3,17.5,18.3,8.4,308.6,0.0,0.3623544
2024-04-27,12:30,67.9,21.3,67.9,67.9,16.9,16.5,10.1,298.2,0.0,0.3560389
2024-04-27,12:35,68.1,23.1,68.1,68.1,18.1,14.2,8.5,290.4,0.0,0.3620842
2024-04-27,12:40,68.9,20.4,68.9,68.9,15.7,12.5,6.6,272.6,0.0,0.341537
2024-04-27,12:45,69.4,21.3,69.4,69.4,16.1,10.9,6.8,269.9,0.0,0.390939
2024-04-27,12:50,68.4,21.6,68.4,68.4,16.8,13.8,7.9,311.4,0.0,0.2405042
2024-04-27,12:55,67.5,21.3,67.5,67.5,17.1,17.2,8.5,307.3,0.0,0.1574378
2024-04-27,13:00,66.3,21.5,66.3,66.3,18.0,13.4,8.1,280.4,0.0,0.1549006
2024-04-27,13:05,66.6,21.6,66.6,66.6,17.9,11.7,7.6,297.4,0.0,0.1253226
2024-04-27,13:10,67.5,22.2,67.5,67.5,17.8,14.2,7.9,277.2,0.0,0.3244029
2024-04-27,13:15,67.9,21.2,67.9,67.9,16.9,16.8,9.2,287.8,0.0,0.3336751
2024-04-27,13:20,68.3,20.6,68.3,68.3,16.2,15.1,10.9,297.2,0.0,0.3347301
2024-04-27,13:25,68.7,22.4,68.7,68.7,17.3,14.7,7.9,287.5,0.0,0.2307282
2024-04-27,13:30,67.6,22.7,67.6,67.6,18.0,12.9,6.8,286.3,0.0,0.1765155
2024-04-27,13:35,68.1,21.5,68.1,68.1,17.0,16,8,304.6,0.0,0.1266795
2024-04-27,13:40,66.7,22,66.7,66.7,18.2,13.5,7.4,289.3,0.0,0.1660039
2024-04-27,13:45,67.5,21,67.5,67.5,16.9,11.3,6.7,279.7,0.0,0.219866
2024-04-27,13:50,67.6,21.1,67.6,67.6,16.9,10,5.1,279.4,0.0,0.1726287
2024-04-27,13:55,67.5,20.1,67.5,67.5,16.3,11.4,5.2,297.5,0.0,0.1499239
2024-04-27,14:00,67.6,22.2,67.6,67.6,17.7,20,5.6,319.2,0.0,0.1243528
2024-04-27,14:05,67.6,21.8,67.6,67.6,17.4,13.2,7.8,302.4,0.0,0.1637026
2024-04-27,14:10,67.4,20.2,67.4,67.4,16.4,10.7,5.5,282.6,0.0,0.1498445
2024-04-27,14:15,67.7,22.5,67.7,67.7,17.9,16.2,7.9,319.9,0.0,0.1460352
2024-04-27,14:20,68.1,22.2,68.1,68.1,17.4,11.6,7.7,291.7,0.0,0.2316248
2024-04-27,14:25,69.1,21.2,69.1,69.1,16.2,14.9,8,277.3,0.0,0.2890477
2024-04-27,14:30,69.9,21.1,69.9,69.9,15.7,16.4,8.4,277.1,0.0,0.3570695
2024-04-27,14:35,70.9,24,70.9,70.9,17.1,11,6.6,279.7,0.0,0.3163404
2024-04-27,14:40,70.8,20.9,70.8,70.8,15.0,13.5,8.8,293.9,0.0,0.2767448
2024-04-27,14:45,69.9,20.2,69.9,69.9,15.1,23.9,11.9,286.3,0.0,0.3303662
2024-04-27,14:50,70.2,20.5,70.2,70.2,15.0,21.9,14.2,297.8,0.0,0.3269427
2024-04-27,14:55,71.2,18.5,71.2,71.2,13.4,17.8,11,266.6,0.0,0.3265415
2024-04-27,15:00,70.2,19.2,70.2,70.2,14.3,18.2,11.8,273.4,0.0,0.2449858
2024-04-27,15:05,69,19.4,69.0,69,15.0,18.6,9.1,287,0.0,0.1402718
2024-04-27,15:10,69.1,18.6,69.1,69.1,14.5,11.7,7.4,268,0.0,0.1416143
2024-04-27,15:15,70.1,17.8,70.1,70.1,13.5,14.7,10.3,271.7,0.0,0.2233076
2024-04-27,15:20,69.7,16.9,69.7,69.7,13.2,19.6,11.2,275.9,0.0,0.2011101
2024-04-27,15:25,71.7,17.5,71.7,71.7,12.6,16.6,9,270.6,0.0,0.2666289
2024-04-27,15:30,71.1,19.8,71.1,71.1,14.2,19.5,11.5,282.7,0.0,0.28834
2024-04-27,15:35,70.1,22.2,70.1,70.1,16.3,22.6,13.1,318.2,0.0,0.2541509
2024-04-27,15:40,69.2,21.5,69.2,69.2,16.3,16.8,10.2,311.9,0.0,0.1215833
2024-04-27,15:45,68.6,20.4,68.6,68.6,15.9,14.4,9.2,294,0.0,0.1335963
2024-04-27,15:50,68.1,20.1,68.1,68.1,16.0,18.3,10.4,295.3,0.0,0.1073935
2024-04-27,15:55,67.5,19.3,67.5,67.5,15.7,13.7,7.8,309.7,0.0,0.1279597
2024-04-27,16:00,70.4,20.1,70.4,70.4,14.7,8.9,5.2,285.2,0.0,0.2706297
2024-04-27,16:05,71.5,17.6,71.5,71.5,12.8,16,9,279.3,0.0,0.2391613
2024-04-27,16:10,71.3,18.9,71.3,71.3,13.6,18.6,10.6,273.6,0.0,0.257078
2024-04-27,16:15,70.6,19.5,70.6,70.6,14.3,14.6,8.4,283.9,0.0,0.2188672
2024-04-27,16:20,70.2,20,70.2,70.2,14.8,17.9,10,279.5,0.0,0.1932139
2024-04-27,16:25,70.6,20.8,70.6,70.6,15.1,18,9.3,286.6,0.0,0.235057
2024-04-27,16:30,70.5,21.1,70.5,70.5,15.3,19.7,10.9,301.6,0.0,0.2158935
2024-04-27,16:35,70.4,19.8,70.4,70.4,14.6,19.9,12.2,298.3,0.0,0.2068773
2024-04-27,16:40,70,21,70.0,70,15.5,14.7,11.3,311.5,0.0,0.1823728
2024-04-27,16:45,69.8,19.7,69.8,69.8,14.8,13.5,8.6,300.2,0.0,0.1798696
2024-04-27,16:50,69.7,21.8,69.7,69.7,16.2,15.5,10.9,290.6,0.0,0.1827003
2024-04-27,16:55,69.6,20.7,69.6,69.6,15.5,14.9,9.1,295.9,0.0,0.1825669
2024-04-27,17:00,69.7,21.2,69.7,69.7,15.8,13.6,7.4,287.9,0.0,0.1787884
2024-04-27,17:05,70.3,20.3,70.3,70.3,14.9,18.4,8.8,291.3,0.0,0.17821
2024-04-27,17:10,69.4,20.1,69.4,69.4,15.2,17.5,11.4,293,0.0,0.1729548
2024-04-27,17:15,69.8,19.1,69.8,69.8,14.4,15.8,9.5,283.3,0.0,0.1654482
2024-04-27,17:20,69.6,18.4,69.6,69.6,14.1,14.9,9.5,282.8,0.0,0.1565814
2024-04-27,17:25,69.8,19.5,69.8,69.8,14.7,15.2,9.1,289.7,0.0,0.1497576
2024-04-27,17:30,69.7,19.4,69.7,69.7,14.7,15,9,307.4,0.0,0.1421212
2024-04-27,17:35,69.4,17.7,69.4,69.4,13.8,17,9.6,305.5,0.0,0.132451
2024-04-27,17:40,69.2,16.5,69.2,69.2,13.2,20.3,10.9,302.4,0.0,0.1290503
2024-04-27,17:45,69.4,16.3,69.4,69.4,13.0,16.7,11.1,287.3,0.0,0.1235833
2024-04-27,17:50,69.6,16,69.6,69.6,12.7,16.1,7.4,291.3,0.0,0.113792
2024-04-27,17:55,69.1,14.3,69.1,69.1,12,18.3,12,296.9,0.0,0.1133547
2024-04-27,18:00,69,14.2,69.0,69,12.0,17.4,11.2,302.8,0.0,0.1090763
2024-04-27,18:05,68.9,14.7,68.9,68.9,12.3,14.7,11.1,283.9,0.0,0.1016575
2024-04-27,18:10,68.9,15.5,68.9,68.9,12.7,10.9,6.4,290.6,0.0,0.09717155
2024-04-27,18:15,69.3,14.2,69.3,69.3,11.8,16.9,7.5,292.6,0.0,0.09243806
2024-04-27,18:20,68.6,15,68.6,68.6,12.6,16.8,10.4,304.7,0.0,0.08429734
2024-04-27,18:25,68.6,15.1,68.6,68.6,12.6,13.4,8.3,315.5,0.0,0.08399782
2024-04-27,18:30,69.2,16.6,69.2,69.2,13.3,10.7,6.3,302.5,0.0,0.07807761
2024-04-27,18:35,68.6,15.2,68.6,68.6,12.7,15.6,9,300.3,0.0,0.07112289
2024-04-27,18:40,68.2,15.1,68.2,68.2,12.8,15.6,9.1,296,0.0,0.0647942
2024-04-27,18:45,68,15.6,68.0,68,13.2,13.2,8,299.9,0.0,0.06011958
2024-04-27,18:50,67.9,15.3,67.9,67.9,13.1,14.9,8.7,294.7,0.0,0.05723211
2024-04-27,18:55,67.6,16.5,67.6,67.6,13.9,15.8,8.6,299.3,0.0,0.05148361
2024-04-27,19:00,67.4,18.2,67.4,67.4,15.1,15.8,8.4,316.9,0.0,0.04631759
2024-04-27,19:05,67.4,16.7,67.4,67.4,14.1,11.3,7.1,298.5,0.0,0.04138994
2024-04-27,19:10,67.2,16.8,67.2,67.2,14.3,18.8,9.2,302.4,0.0,0.03546091
2024-04-27,19:15,66.9,17.2,66.9,66.9,14.7,15.5,8.7,304,0.0,0.03052706
2024-04-27,19:20,66.7,17.5,66.7,66.7,15.0,11.4,6.9,300.6,0.0,0.02555536
2024-04-27,19:25,66.3,18.7,66.3,66.3,16.0,13.2,8.5,313.7,0.0,0.02042733
2024-04-27,19:30,65.9,18.1,65.9,65.9,15.8,11.6,6.3,309.9,0.0,0.0124855
2024-04-27,19:35,65.6,18.3,65.6,65.6,16.1,12.8,6.9,309.4,0.0,0.00450791
2024-04-27,19:40,65.5,18.7,65.5,65.5,16.4,15.7,8.2,310,0.0,0.00306563
2024-04-27,19:45,65.2,19,65.2,65.2,16.8,10.1,7,313.5,0.0,0.00172754
2024-04-27,19:50,65,19.2,65.0,65,17.1,11.6,7.5,315.1,0.0,0.00077794
2024-04-27,19:55,64.8,19.4,64.8,64.8,17.4,10.6,5.8,315.1,0.0,0.00015476
2024-04-27,20:00,64.3,18.9,64.3,64.3,17.2,11.5,5.8,314.7,0.0,-0.00024681
2024-04-27,20:05,64.4,19.5,64.4,64.4,17.7,10.1,5.3,310.8,0.0,-0.00039027
2024-04-27,20:10,64.4,19.6,64.4,64.4,17.8,9.1,5.3,315.7,0.0,-0.00044014
2024-04-27,20:15,64,19.5,64.0,64,17.9,7.4,4.7,317.7,0.0,-0.0005292399